Weather Roundup
Issued by NWS

Home | Current Version | Previous Version | Graphics & Text | Print | Product List | Glossary Off
Versions: 1 2 3 4 5 6 7 8 9 10 11 12 13 14 15 16 17 18 19 20 21 22 23 24 25 26 27 28 29 30 31 32 33 34 35 36 37 38 39 40 41 42 43 44 45 46 47 48 49 50

000
NZUS93 KARX 181859
HRRWXR

CURRENT HOURLY OBSERVATIONS ACROSS
MUCH OF THE UPPER MISSISSIPPI VALLEY
NATIONAL WEATHER SERVICE LA CROSSE WI
100 PM CST THU DEC 18 2014


...SOUTHEAST MINNESOTA...


CITY           SKY/WX    TMP DP  RH WIND       PRES   REMARKS
ROCHESTER      CLOUDY    20  14  77 CALM      30.24F HAZE
ROCHESTER/MAYO CLOUDY    20  13  73 SE3       30.25F
WINONA         CLOUDY    25  21  86 CALM      30.28F
AUSTIN         PTSUNNY   19  16  86 CALM      30.23F
ALBERT LEA     MOSUNNY   21  16  79 CALM      30.23F
DODGE CENTER   FLURRIES  19  16  86 CALM      30.23F
PRESTON        CLOUDY    20  15  82 CALM      30.23F
OWATONNA       LGT SNOW  19  12  73 CALM      30.24F
FARIBAULT      CLOUDY    21  16  79 S3        30.25F
$$

...ELSEWHERE IN MINNESOTA...


CITY           SKY/WX    TMP DP  RH WIND       PRES   REMARKS
MINNEAPOLIS    FLURRIES  20  16  84 CALM      30.28F
INTNL FALLS    CLOUDY    19  13  77 S6        30.25F WCI  11
DULUTH         CLOUDY    25  18  74 SE14      30.22F WCI  13
RED WING       LGT SNOW  23  18  80 CALM      30.27F
REDWOOD FALLS  CLOUDY    19  15  84 SE7       30.24F WCI  10
MANKATO        PTSUNNY   19  12  73 E3        30.25F
WORTHINGTON    CLOUDY    23  18  80 S7        30.19F WCI  15
FAIRMONT       CLOUDY    21  16  79 S5        30.22F WCI  15
$$

...SOUTHWEST WISCONSIN...


CITY           SKY/WX    TMP DP  RH WIND       PRES   REMARKS
LA CROSSE      CLOUDY    25  18  74 SW5       30.28F WCI  19
PRAIRIE DU CHI CLOUDY    27  17  64 CALM      30.26F
BOSCOBEL       CLOUDY    27  17  66 N5        30.27F WCI  22
LONE ROCK      NOT AVBL
PLATTEVILLE    PTSUNNY   26  19  77 CALM      30.24F
FORT MC COY    CLOUDY    24  19  82 CALM      30.28F
VIROQUA        CLOUDY    22  19  87 E5        30.23F WCI  16
WIS DELLS      NOT AVBL
$$

...ELSEWHERE IN WISCONSIN...


CITY           SKY/WX    TMP DP  RH WIND       PRES   REMARKS
MILWAUKEE      CLOUDY    27  21  78 W9        30.23F WCI  18
MADISON        CLOUDY    27  20  75 NW3       30.23F
GREEN BAY      CLOUDY    28  20  71 N7        30.25F WCI  21
EAU CLAIRE     NOT AVBL
BLACK RVR FLS  CLOUDY    25  20  82 CALM      30.27F
MEDFORD        CLOUDY    22  18  84 CALM      30.22F
WAUSAU         CLOUDY    25  18  74 CALM      30.22F
WIS RAPIDS     CLOUDY    25  19  78 VRB3      30.26F
MARSHFIELD     CLOUDY    25  19  78 VRB5      30.23F WCI  19
RICE LAKE      CLOUDY    23  20  88 CALM      30.28F
$$

...NORTHEAST IOWA...


CITY           SKY/WX    TMP DP  RH WIND       PRES   REMARKS
DECORAH        CLOUDY    23  16  74 NE5       30.23F WCI  17
MASON CITY     CLOUDY    23  17  78 CALM      30.25F
CHARLES CITY   CLOUDY    21  18  86 NE5       30.26F WCI  15
OELWEIN        PTSUNNY   23  16  74 CALM      30.25F
$$

...ELSEWHERE IN IOWA...


CITY           SKY/WX    TMP DP  RH WIND       PRES   REMARKS
DES MOINES     FLURRIES  30  20  66 CALM      30.24F
IOWA CITY      CLOUDY    26  18  71 N5        30.27F WCI  20
FORT DODGE     CLOUDY    25  18  74 S3        30.24F
$$

...NORTHERN ILLINOIS...


CITY           SKY/WX    TMP DP  RH WIND       PRES   REMARKS
CHICAGO-OHARE  CLOUDY    27  18  69 NW7       30.22F WCI  19
CHICAGO-MIDWAY CLOUDY    28  18  66 SW7       30.24F WCI  21
MOLINE         PTSUNNY   28  17  63 N5        30.26F WCI  23
ROCKFORD       CLOUDY    28  17  63 N5        30.26F WCI  23
PEORIA         CLOUDY    28  19  69 CALM      30.26F
$$

NOTE: "FAIR" INDICATES FEW OR NO CLOUDS BELOW 12,000 FEET WITH NO
SIGNIFICANT WEATHER AND/OR OBSTRUCTIONS TO VISIBILITY. WIND
SPEEDS ARE IN MILES-PER-HOUR.



USA.gov is the U.S. government's official web portal to all federal, state and local government web resources and services.